Waarnemingen

Advertentie
Mijn weer
Jerez de los Caballeros, Spanje (8337): temperatuur & dauwpunt: 15.08.2018 04:00:00 - 21.08.2018 04:00:00 (CEST)Jerez de los Caballeros, Spanje (8337): windsnelheid & windstoten: 15.08.2018 04:00:00 - 21.08.2018 04:00:00 (CEST)Jerez de los Caballeros, Spanje (8337): windrichting: 15.08.2018 04:00:00 - 21.08.2018 04:00:00 (CEST)Jerez de los Caballeros, Spanje (8337): luchtdruk: 15.08.2018 04:00:00 - 21.08.2018 04:00:00 (CEST)Jerez de los Caballeros, Spanje (8337): zicht: 15.08.2018 04:00:00 - 21.08.2018 04:00:00 (CEST)Jerez de los Caballeros, Spanje (8337): Zonneschijnduur: 15.08.2018 04:00:00 - 21.08.2018 04:00:00 (CEST)Jerez de los Caballeros, Spanje (8337): neerslag: 15.08.2018 04:00:00 - 21.08.2018 04:00:00 (CEST)
Datum & Tijd tt [°C] td [°C] ff [km/u] ff [kn] fx [km/u] fx [kn] dd ppp [hPa] vv [km] sd [min] rr [mm]
21.08.2018 04:00:00 - - - - - - - - - - -
21.08.2018 03:00:00 21,0 18,2 5 3 10 6 OZO 1015,0 14 0 0,0
21.08.2018 02:00:00 21,0 18,0 10 6 13 7 O 1015,4 18 0 -
21.08.2018 01:00:00 21,2 18,0 6 3 10 6 NNO 1015,2 20 0 0,0
21.08.2018 00:00:00 22,0 17,8 8 4 15 8 WNW 1015,3 20 0 0,0
20.08.2018 23:00:00 22,5 18,5 9 5 11 6 O 1014,7 17 0 0,0
20.08.2018 22:00:00 23,1 18,2 3 2 19 10 Z 1014,4 20 0 0,0
20.08.2018 21:00:00 23,8 17,8 14 7 29 16 O 1013,9 20 16 0,2
20.08.2018 20:00:00 25,2 14,0 22 12 62 34 ZZO 1014,3 20 5 -
20.08.2018 19:00:00 29,2 15,7 9 5 30 16 ZZW 1013,3 20 0 0,0
20.08.2018 18:00:00 28,3 15,6 26 14 46 25 ZW 1013,5 20 19 0,0
20.08.2018 17:00:00 35,9 10,2 4 2 22 12 WZW 1012,3 20 47 0,0
20.08.2018 16:00:00 35,6 11,9 9 5 30 16 NO 1013,2 20 60 0,0
20.08.2018 15:00:00 34,2 12,0 9 5 22 12 NO 1014,3 20 60 0,0
20.08.2018 14:00:00 34,0 11,8 5 3 24 13 ZO 1014,8 20 60 -
20.08.2018 13:00:00 33,0 12,1 8 4 23 13 O 1015,4 20 60 0,0
20.08.2018 12:00:00 30,8 11,7 10 5 18 10 O 1016,0 20 60 0,0
20.08.2018 11:00:00 28,5 12,8 11 6 19 10 O 1016,3 20 60 0,0
20.08.2018 10:00:00 25,0 13,3 11 6 16 8 O 1016,5 20 60 0,0
20.08.2018 09:00:00 21,4 12,7 5 3 9 5 OZO 1016,8 20 48 0,0
20.08.2018 08:00:00 20,0 12,7 5 3 6 4 ONO 1016,7 20 0 -
20.08.2018 07:00:00 20,9 12,5 6 3 7 4 ONO 1016,2 20 0 0,0
20.08.2018 06:00:00 22,7 12,3 5 3 8 4 ONO 1015,7 20 0 0,0
20.08.2018 05:00:00 23,3 12,0 3 1 12 7 NNW 1015,5 20 0 0,0
20.08.2018 04:00:00 23,9 11,6 9 5 15 8 WNW 1015,3 20 0 0,0
20.08.2018 03:00:00 24,7 11,7 11 6 17 9 W 1015,4 20 0 0,0
20.08.2018 02:00:00 26,0 11,3 14 8 27 14 WZW 1015,4 20 0 -
20.08.2018 01:00:00 - - - - - - - - - - -
20.08.2018 00:00:00 29,3 12,2 18 10 26 14 ZW 1014,9 20 0 0,0
19.08.2018 23:00:00 31,7 11,4 13 7 18 10 ZW 1014,2 20 0 0,0
19.08.2018 22:00:00 32,8 10,2 14 7 24 13 ONO 1013,3 20 0 0,0
19.08.2018 21:00:00 34,2 10,0 16 9 24 13 NO 1012,5 20 40 0,0
19.08.2018 20:00:00 36,2 8,1 10 5 21 11 NO 1012,0 20 56 -
19.08.2018 19:00:00 36,6 8,4 10 5 27 14 ONO 1012,0 20 57 0,0
19.08.2018 18:00:00 37,2 7,2 14 7 27 14 OZO - 20 60 0,0
19.08.2018 17:00:00 37,4 7,3 16 9 30 16 O 1012,4 20 60 0,0
19.08.2018 16:00:00 36,8 8,7 9 5 30 16 N 1012,9 20 57 0,0
19.08.2018 15:00:00 36,7 9,3 10 5 29 16 O 1013,2 20 60 0,0
19.08.2018 14:00:00 35,9 8,7 13 7 33 18 O 1013,7 20 60 -
19.08.2018 13:00:00 34,0 9,3 10 6 22 12 ONO 1014,5 20 60 0,0
19.08.2018 12:00:00 32,3 10,3 6 3 17 9 O 1015,0 20 60 0,0
19.08.2018 11:00:00 29,2 10,8 8 5 14 8 O 1015,5 20 60 0,0
19.08.2018 10:00:00 25,0 10,0 3 2 9 5 Z 1016,0 20 60 0,0
19.08.2018 09:00:00 22,4 9,9 3 1 6 3 ZZO 1016,2 20 50 0,0
19.08.2018 08:00:00 20,8 9,7 3 2 8 5 ZZO 1016,0 20 0 -
19.08.2018 07:00:00 20,4 9,7 4 2 11 6 WZW 1015,5 20 0 0,0
19.08.2018 06:00:00 21,0 10,2 7 4 13 7 ONO 1015,1 20 0 0,0
19.08.2018 05:00:00 22,3 9,8 10 5 13 7 O 1014,9 20 0 0,0
19.08.2018 04:00:00 24,9 8,4 3 2 6 4 OZO 1014,5 20 0 0,0
19.08.2018 03:00:00 25,3 8,3 5 3 9 5 ZO 1014,4 20 0 0,0
19.08.2018 02:00:00 27,4 7,3 6 3 12 7 ONO 1014,1 20 0 -
19.08.2018 01:00:00 27,5 7,8 8 4 13 7 ONO 1014,2 20 0 0,0
19.08.2018 00:00:00 28,7 8,4 4 2 13 7 OZO 1013,9 20 0 0,0
18.08.2018 23:00:00 30,1 8,5 7 4 23 12 O 1013,5 20 0 0,0
18.08.2018 22:00:00 31,6 7,3 16 9 24 13 N 1012,8 20 0 0,0
18.08.2018 21:00:00 32,7 8,3 18 10 30 16 N 1012,0 20 43 0,0
18.08.2018 20:00:00 34,5 9,0 14 7 21 11 N 1011,2 20 39 -
18.08.2018 19:00:00 34,7 9,2 11 6 24 13 N 1011,4 20 53 0,0
18.08.2018 18:00:00 36,9 7,8 4 2 21 11 NO 1011,2 20 32 0,0
18.08.2018 17:00:00 36,2 8,1 9 5 24 13 W 1011,7 20 53 0,0
18.08.2018 16:00:00 35,8 7,8 14 8 25 14 NO 1012,2 20 60 0,0
18.08.2018 15:00:00 35,5 8,4 8 4 18 10 ZO 1013,1 20 60 0,0
18.08.2018 14:00:00 34,3 9,6 6 4 16 9 ONO 1013,8 20 60 -
18.08.2018 13:00:00 33,5 9,6 7 4 14 8 NO 1014,5 20 60 0,0
18.08.2018 12:00:00 31,3 10,6 7 4 12 6 NNO 1015,0 20 60 0,0
18.08.2018 11:00:00 28,6 10,8 4 2 10 5 ONO 1015,3 20 60 0,0
18.08.2018 10:00:00 23,6 10,6 8 5 14 8 O 1015,9 18 60 0,0
18.08.2018 09:00:00 20,8 9,7 5 3 9 5 O 1016,1 20 49 0,0
18.08.2018 08:00:00 18,7 10,0 4 2 13 7 O 1016,0 20 0 -
18.08.2018 07:00:00 19,2 9,0 9 5 11 6 O 1015,6 20 0 0,0
18.08.2018 06:00:00 19,5 9,4 5 3 8 5 ZO 1015,5 20 0 0,0
18.08.2018 05:00:00 20,1 9,7 3 2 6 3 O 1015,5 20 0 0,0
18.08.2018 04:00:00 20,8 8,8 4 2 7 4 OZO 1015,5 20 0 0,0
18.08.2018 03:00:00 21,7 8,3 4 2 11 6 Z 1015,5 20 0 0,0
18.08.2018 02:00:00 22,6 8,0 3 2 9 5 O 1015,5 20 0 -
18.08.2018 01:00:00 23,8 8,7 4 2 9 5 NNO 1015,6 20 0 0,0
18.08.2018 00:00:00 25,0 8,0 5 3 8 5 O 1015,2 20 0 0,0
17.08.2018 23:00:00 26,5 8,0 5 3 10 5 O 1014,7 20 0 0,0
17.08.2018 22:00:00 28,1 6,8 10 6 16 9 NW 1013,7 20 0 0,0
17.08.2018 21:00:00 29,3 8,4 14 8 22 12 W 1013,2 20 0 0,0
17.08.2018 20:00:00 31,0 7,4 14 8 25 14 W 1012,7 20 0 -
17.08.2018 19:00:00 32,2 8,4 19 11 29 16 W 1012,5 20 42 0,0
17.08.2018 18:00:00 33,1 9,2 13 7 28 15 W 1012,6 20 59 0,0
17.08.2018 17:00:00 34,1 8,7 14 7 28 15 W 1012,8 20 57 0,0
17.08.2018 16:00:00 32,6 9,4 18 10 32 18 WZW 1013,8 20 55 0,0
17.08.2018 15:00:00 33,1 10,4 21 11 31 17 ZW 1014,3 20 60 0,0
17.08.2018 14:00:00 31,3 9,6 20 11 29 15 W 1014,8 20 60 -
17.08.2018 13:00:00 29,6 10,6 18 10 27 15 ZW 1015,4 20 60 0,0
17.08.2018 12:00:00 27,6 12,0 16 8 22 12 WZW 1015,9 20 60 0,0
17.08.2018 11:00:00 24,0 14,7 5 3 11 6 ZZW 1016,1 20 60 0,0
17.08.2018 10:00:00 20,8 14,7 6 4 11 6 WZW 1016,4 16 60 0,0
17.08.2018 09:00:00 18,4 14,0 8 4 14 8 WZW 1016,5 17 49 0,0
17.08.2018 08:00:00 17,1 13,5 9 5 14 8 ZW 1016,7 19 0 -
17.08.2018 07:00:00 17,9 13,9 9 5 11 6 W 1016,3 20 0 0,0
17.08.2018 06:00:00 18,8 13,9 8 4 9 5 ZW 1016,4 20 0 0,0
17.08.2018 05:00:00 19,5 13,9 6 3 9 5 WZW 1016,0 20 0 0,0
17.08.2018 04:00:00 19,9 13,9 5 3 16 8 WNW 1016,1 20 0 0,0
17.08.2018 03:00:00 20,8 13,8 13 7 17 9 W 1016,1 20 0 0,0
17.08.2018 02:00:00 22,2 13,6 11 6 23 12 ZW 1016,3 20 0 -
17.08.2018 01:00:00 23,2 13,4 22 12 31 17 WZW 1015,8 20 0 0,0
17.08.2018 00:00:00 24,7 13,3 21 11 36 19 ZW 1015,4 20 0 0,0
16.08.2018 23:00:00 27,2 12,0 23 12 33 18 WZW 1014,4 20 0 0,0
16.08.2018 22:00:00 28,3 10,5 15 8 25 13 WZW 1013,6 20 0 0,0
16.08.2018 21:00:00 30,0 10,5 19 10 34 18 W 1012,8 20 55 0,0
16.08.2018 20:00:00 - - - - - - - - - - -
16.08.2018 19:00:00 32,4 10,4 19 11 34 19 W 1012,4 20 60 0,0
16.08.2018 18:00:00 32,5 11,1 21 11 35 19 W 1012,3 20 60 0,0
16.08.2018 17:00:00 33,4 10,6 19 11 49 26 WZW 1012,6 20 60 0,0
16.08.2018 16:00:00 32,0 10,0 17 9 27 14 W 1013,6 20 60 0,0
16.08.2018 15:00:00 31,2 9,4 15 8 30 16 W 1014,3 20 60 0,0
16.08.2018 14:00:00 30,7 9,0 16 9 32 17 W 1014,8 20 60 -
16.08.2018 13:00:00 29,1 10,8 16 9 27 14 ZW 1015,3 20 60 0,0
16.08.2018 12:00:00 27,6 9,9 16 9 27 15 ZW 1015,9 20 60 0,0
16.08.2018 11:00:00 24,3 9,8 7 4 11 6 ZZW 1016,1 20 60 0,0
16.08.2018 10:00:00 20,6 9,8 2 1 6 3 NW 1016,5 20 60 0,0
16.08.2018 09:00:00 17,7 9,3 2 1 7 4 Z 1016,6 20 49 0,0
16.08.2018 08:00:00 16,4 8,7 3 1 5 3 O 1016,8 20 0 -
16.08.2018 07:00:00 16,0 7,4 4 2 11 6 ZW 1016,7 20 0 0,0
16.08.2018 06:00:00 17,5 7,8 8 5 11 6 O 1016,3 20 0 0,0
16.08.2018 05:00:00 19,2 10,8 1 1 10 5 W 1016,2 20 0 0,0
16.08.2018 04:00:00 19,8 11,0 7 4 10 5 W 1016,3 20 0 0,0
16.08.2018 03:00:00 20,4 8,4 5 3 14 7 ZW 1016,0 20 0 0,0
16.08.2018 02:00:00 21,9 8,4 11 6 18 10 W 1015,9 20 0 -
16.08.2018 01:00:00 23,1 4,6 13 7 22 12 W 1015,6 20 0 0,0
16.08.2018 00:00:00 23,9 6,2 10 5 28 15 WZW 1015,6 20 0 0,0
15.08.2018 23:00:00 25,7 7,7 20 11 27 14 WZW 1015,0 20 0 0,0
15.08.2018 22:00:00 27,3 8,3 16 8 27 15 ZZW 1014,0 20 0 0,0
15.08.2018 21:00:00 29,6 10,2 22 12 33 18 ZZW 1013,0 20 57 0,0
15.08.2018 20:00:00 32,9 10,3 24 13 36 19 ZW 1011,7 20 60 -
15.08.2018 19:00:00 34,2 6,5 24 13 36 19 WZW 1011,6 20 60 0,0
15.08.2018 18:00:00 35,0 6,2 17 9 37 20 WZW 1011,8 20 60 0,0
15.08.2018 17:00:00 35,2 5,6 18 10 29 16 ZW 1012,1 20 60 0,0
15.08.2018 16:00:00 33,6 7,6 16 8 33 18 W 1012,8 20 60 0,0
15.08.2018 15:00:00 34,0 8,5 18 10 29 15 ZW 1013,2 20 60 0,0
15.08.2018 14:00:00 32,3 10,3 10 5 27 15 WZW 1014,1 20 60 -
15.08.2018 13:00:00 30,8 10,2 16 9 26 14 ZW 1014,7 20 60 0,0
15.08.2018 12:00:00 29,6 11,7 16 8 26 14 WZW 1015,0 20 60 0,0
15.08.2018 11:00:00 26,0 14,1 3 2 8 4 ZW 1015,4 20 60 0,0
15.08.2018 10:00:00 22,0 13,7 6 3 10 6 OZO 1015,9 20 60 0,0
15.08.2018 09:00:00 18,8 13,0 4 2 8 4 OZO 1016,2 20 49 0,0
15.08.2018 08:00:00 17,0 12,7 8 4 10 5 OZO 1016,3 19 0 -
15.08.2018 07:00:00 17,3 13,1 5 3 6 3 O 1016,0 19 0 0,0
15.08.2018 06:00:00 18,7 13,9 5 3 7 4 ZZW 1015,7 20 0 0,0
15.08.2018 05:00:00 19,6 14,4 5 3 9 5 W 1015,6 18 0 0,0
15.08.2018 04:00:00 20,3 14,4 6 3 11 6 W 1015,8 19 0 0,0

tt = temperatuur
td = dauwpunt
ff = windsnelheid
fx = windstoten
dd = windrichting
ppp = luchtdruk
vv = zicht
sd = Zonneschijnduur
rr = neerslag

Weerstations in de omgeving